Darstellungsparameter: Aktuell verwendete Einstellungen:
Skalierung der Graphiken ... ?
xyx+y,   Skalierungsfaktor:      Skalierung: Modus: x, Faktor: 1
Darstellungszeitraum ... ?
Vom - - bis: - -   Zeitraum: 28.03.2020 - 28.03.2020
Min/Max/Avg-Anzeige ... ?
Zeige MMA aktuell
Zeige MMA Monat
Zeige MMA alles
Zeige --A aktuell
Zeige --A Monat
Zeige --A alles
Keine MMA-Anzeige
MMA:
Keine MMA-Graphiken
MMA-Basis: 28.03.2020 - 28.03.2020
Quicknavigation für Darstellung... ?
Tage:      1T, 2T, 3T, 5T -1T -2T -3T -5T +1T +2T +3T +5T
Wochen: 1W, 2W, 3W -1W -2W -3W +1W +2W +3W
Monate: 1M, 3M, 6M -1M -3M -6M +1M +3M +6M
Jahre:    1J, 3J, 5J, 10J -1J -3J -5J -10J +1J +3J +5J +10J
Nutze für die Darstellung ... ?
Originaldaten oder Mittelwerte auf ...
Stundenbasis Tagesbasis Wochenbasis
Monatsbasis Jahresbasis      Datenbasis: Original-Daten
Darstellen als:
Statistik (Auto) Statistik J:M      Darstellung:
Zur Graphik,    zurück zur Übersicht aller Sensoren.
 
Tabellarische Datenbersicht: ?
 
Sensor: Nr:Datum:Temp:Feuchte:
Aussen-T/F 1 28-03-2020 00:00:17 4.8 C 38 %
2 28-03-2020 00:10:17 4.8 C 39 %
3 28-03-2020 00:20:17 5 C 37 %
4 28-03-2020 00:30:18 4.9 C 38 %
5 28-03-2020 00:40:18 4.7 C 38 %
6 28-03-2020 00:50:17 4.7 C 38 %
7 28-03-2020 01:00:17 4.6 C 38 %
8 28-03-2020 01:10:17 4.4 C 39 %
9 28-03-2020 01:20:17 4.3 C 39 %
10 28-03-2020 01:30:17 4.1 C 39 %
11 28-03-2020 01:40:18 3.9 C 40 %
12 28-03-2020 01:50:17 3.7 C 41 %
13 28-03-2020 02:00:18 3.6 C 41 %
14 28-03-2020 02:10:18 3.3 C 41 %
15 28-03-2020 02:20:18 3.1 C 41 %
16 28-03-2020 02:30:17 3.7 C 42 %
17 28-03-2020 02:40:17 3.7 C 41 %
18 28-03-2020 02:50:18 3.4 C 41 %
19 28-03-2020 03:00:18 3.1 C 41 %
20 28-03-2020 03:10:18 2.9 C 42 %
21 28-03-2020 03:20:17 2.8 C 43 %
22 28-03-2020 03:30:18 2.6 C 43 %
23 28-03-2020 03:40:18 2.1 C 43 %
24 28-03-2020 03:50:17 2.1 C 44 %
25 28-03-2020 04:00:18 2.2 C 44 %
Sensor: Nr:Datum:Temp:Feuchte:
Aussen-T/F 26 28-03-2020 04:10:18 2.1 C 44 %
27 28-03-2020 04:20:18 1.9 C 45 %
28 28-03-2020 04:30:18 1.7 C 45 %
29 28-03-2020 04:40:18 1.8 C 46 %
30 28-03-2020 04:50:17 1.8 C 46 %
31 28-03-2020 05:00:18 1.7 C 45 %
32 28-03-2020 05:10:18 1.6 C 45 %
33 28-03-2020 05:20:17 1.5 C 45 %
34 28-03-2020 05:30:18 1.3 C 46 %
35 28-03-2020 05:40:18 1.2 C 46 %
36 28-03-2020 05:50:18 1.2 C 46 %
37 28-03-2020 06:00:18 1.2 C 46 %
38 28-03-2020 06:10:18 1.3 C 46 %
39 28-03-2020 06:20:17 1.1 C 46 %
40 28-03-2020 06:30:17 1.1 C 46 %
41 28-03-2020 06:40:17 1 C 46 %
42 28-03-2020 06:50:17 1.2 C 47 %
43 28-03-2020 07:00:17 1.5 C 47 %
44 28-03-2020 07:10:17 1.7 C 47 %
45 28-03-2020 07:20:17 1.9 C 47 %
46 28-03-2020 07:30:18 1.9 C 46 %
47 28-03-2020 07:40:18 1.9 C 46 %
48 28-03-2020 07:50:17 2 C 45 %
49 28-03-2020 08:00:17 2.2 C 45 %
50 28-03-2020 08:10:18 2.5 C 45 %
Sensor: Nr:Datum:Temp:Feuchte:
Aussen-T/F 51 28-03-2020 08:20:18 2.8 C 46 %
52 28-03-2020 08:30:17 3.2 C 45 %
53 28-03-2020 08:40:17 3.7 C 44 %
54 28-03-2020 08:50:18 4 C 43 %
55 28-03-2020 09:00:18 4.6 C 43 %
56 28-03-2020 09:10:18 5.1 C 41 %
57 28-03-2020 09:20:17 5.7 C 41 %
58 28-03-2020 09:30:18 6.3 C 40 %
59 28-03-2020 09:40:18 6.9 C 40 %
60 28-03-2020 09:50:18 7.8 C 38 %
61 28-03-2020 10:00:18 8.4 C 37 %
62 28-03-2020 10:10:18 9.5 C 35 %
63 28-03-2020 10:20:17 10.2 C 32 %
64 28-03-2020 10:30:17 10.9 C 31 %
65 28-03-2020 10:40:17 11.6 C 30 %
66 28-03-2020 10:50:18 12.2 C 29 %
67 28-03-2020 11:00:18 13.4 C 26 %
68 28-03-2020 11:10:18 13.6 C 25 %
69 28-03-2020 11:20:17 15.8 C 20 %
70 28-03-2020 11:30:17 16.7 C 20 %
71 28-03-2020 11:40:17 16.4 C 20 %
72 28-03-2020 11:50:18 15.9 C 20 %
73 28-03-2020 12:00:17 16.6 C 20 %
74 28-03-2020 12:10:17 17 C 20 %
75 28-03-2020 12:20:17 17.7 C 20 %
Sensor: Nr:Datum:Temp:Feuchte:
Aussen-T/F 76 28-03-2020 12:30:17 17.8 C 20 %
77 28-03-2020 12:40:17 18.1 C 20 %
78 28-03-2020 12:50:18 18 C 20 %
79 28-03-2020 13:00:18 18.6 C 20 %
80 28-03-2020 13:10:18 19.6 C 20 %
81 28-03-2020 13:20:18 21.7 C 20 %
82 28-03-2020 13:30:17 21.1 C 20 %
83 28-03-2020 13:40:17 20.7 C 20 %
84 28-03-2020 13:50:18 20.6 C 20 %
85 28-03-2020 14:00:17 21.1 C 20 %
86 28-03-2020 14:10:17 21.3 C 20 %
87 28-03-2020 14:20:17 21.9 C 20 %
88 28-03-2020 14:30:17 23.7 C 20 %
89 28-03-2020 14:40:17 24.3 C 20 %
90 28-03-2020 14:50:17 23.2 C 20 %
91 28-03-2020 15:00:18 22.4 C 20 %
92 28-03-2020 15:10:18 19.9 C 20 %
93 28-03-2020 15:20:18 18.6 C 20 %
94 28-03-2020 15:30:18 19.6 C 20 %
95 28-03-2020 15:40:18 22.1 C 20 %
96 28-03-2020 15:50:18 20.5 C 20 %
97 28-03-2020 16:00:18 21.1 C 20 %
98 28-03-2020 16:10:18 21.1 C 20 %
99 28-03-2020 16:20:18 19.9 C 20 %
100 28-03-2020 16:30:18 19.6 C 20 %
Sensor: Nr:Datum:Temp:Feuchte:
Aussen-T/F 101 28-03-2020 16:40:18 19.6 C 20 %
102 28-03-2020 16:50:18 18.5 C 20 %
103 28-03-2020 17:00:18 17.9 C 20 %
104 28-03-2020 17:10:18 17 C 20 %
105 28-03-2020 17:20:18 16.6 C 20 %
106 28-03-2020 17:30:18 16.2 C 20 %
107 28-03-2020 17:40:18 16.2 C 20 %
108 28-03-2020 17:50:17 15.4 C 20 %
109 28-03-2020 18:00:18 14.9 C 20 %
110 28-03-2020 18:10:18 14.6 C 20 %
111 28-03-2020 18:20:17 14 C 20 %
112 28-03-2020 18:30:17 13.5 C 20 %
113 28-03-2020 18:40:17 13.1 C 20 %
114 28-03-2020 18:50:18 12.6 C 20 %
115 28-03-2020 19:00:18 12.3 C 20 %
116 28-03-2020 19:10:18 11.7 C 20 %
117 28-03-2020 19:20:18 11.7 C 20 %
118 28-03-2020 19:30:18 11.4 C 20 %
119 28-03-2020 19:40:18 11.2 C 20 %
120 28-03-2020 19:50:17 10.8 C 20 %
121 28-03-2020 20:00:18 10.3 C 20 %
122 28-03-2020 20:10:18 10.7 C 20 %
123 28-03-2020 20:20:17 10.5 C 20 %
124 28-03-2020 20:30:18 10 C 20 %
125 28-03-2020 20:40:18 9.2 C 20 %
Sensor: Nr:Datum:Temp:Feuchte:
Aussen-T/F 126 28-03-2020 20:50:17 8.7 C 20 %
127 28-03-2020 21:00:17 8.8 C 20 %
128 28-03-2020 21:10:17 9.2 C 20 %
129 28-03-2020 21:20:17 8.7 C 23 %
130 28-03-2020 21:30:17 8.1 C 25 %
131 28-03-2020 21:40:17 8.4 C 23 %
132 28-03-2020 21:50:17 7.6 C 25 %
133 28-03-2020 22:00:17 8.3 C 25 %
134 28-03-2020 22:10:17 8.5 C 21 %
135 28-03-2020 22:20:17 8.4 C 25 %
136 28-03-2020 22:30:17 8.3 C 26 %
137 28-03-2020 22:40:17 7.9 C 26 %
138 28-03-2020 22:50:17 7.4 C 28 %
139 28-03-2020 23:00:17 7.3 C 30 %
140 28-03-2020 23:10:17 7.2 C 30 %
141 28-03-2020 23:20:18 7.1 C 30 %
142 28-03-2020 23:30:18 7.1 C 31 %
143 28-03-2020 23:40:18 6.8 C 32 %
144 28-03-2020 23:50:17 6.7 C 33 %
Sensor: Nr:Datum:Temp:Feuchte:
G-T/H 1 28-03-2020 00:00:17 10 C 57 %
2 28-03-2020 00:10:17 10 C 57 %
3 28-03-2020 00:20:17 10 C 58 %
4 28-03-2020 00:30:18 10.1 C 58 %
5 28-03-2020 00:40:18 10.1 C 58 %
6 28-03-2020 00:50:17 10 C 58 %
7 28-03-2020 01:00:17 10.1 C 59 %
8 28-03-2020 01:10:17 10.1 C 59 %
9 28-03-2020 01:20:17 10.1 C 59 %
10 28-03-2020 01:30:17 10.1 C 59 %
11 28-03-2020 01:40:18 10.1 C 59 %
12 28-03-2020 01:50:17 10.1 C 60 %
13 28-03-2020 02:00:18 10.1 C 60 %
14 28-03-2020 02:10:18 10.1 C 60 %
15 28-03-2020 02:20:18 10 C 60 %
16 28-03-2020 02:30:17 10 C 60 %
17 28-03-2020 02:40:17 10 C 60 %
18 28-03-2020 02:50:18 10.1 C 60 %
19 28-03-2020 03:00:18 10 C 60 %
20 28-03-2020 03:10:18 10 C 60 %
21 28-03-2020 03:20:17 10 C 60 %
22 28-03-2020 03:30:18 10 C 61 %
23 28-03-2020 03:40:18 10 C 61 %
24 28-03-2020 03:50:17 10 C 61 %
25 28-03-2020 04:00:18 10 C 61 %
Sensor: Nr:Datum:Temp:Feuchte:
G-T/H 26 28-03-2020 04:10:18 10 C 61 %
27 28-03-2020 04:20:18 10 C 61 %
28 28-03-2020 04:30:18 10 C 61 %
29 28-03-2020 04:40:18 10 C 61 %
30 28-03-2020 04:50:17 10 C 61 %
31 28-03-2020 05:00:18 9.9 C 62 %
32 28-03-2020 05:10:18 9.9 C 62 %
33 28-03-2020 05:20:17 9.9 C 62 %
34 28-03-2020 05:30:18 9.9 C 62 %
35 28-03-2020 05:40:18 9.8 C 62 %
36 28-03-2020 05:50:18 9.8 C 62 %
37 28-03-2020 06:00:18 9.8 C 62 %
38 28-03-2020 06:10:18 9.8 C 62 %
39 28-03-2020 06:20:17 9.8 C 62 %
40 28-03-2020 06:30:17 9.8 C 62 %
41 28-03-2020 06:40:17 9.8 C 62 %
42 28-03-2020 06:50:17 9.8 C 62 %
43 28-03-2020 07:00:17 9.8 C 62 %
44 28-03-2020 07:10:17 9.8 C 62 %
45 28-03-2020 07:20:17 9.7 C 62 %
46 28-03-2020 07:30:18 9.7 C 62 %
47 28-03-2020 07:40:18 9.7 C 62 %
48 28-03-2020 07:50:17 9.7 C 62 %
49 28-03-2020 08:00:17 9.7 C 62 %
50 28-03-2020 08:10:18 9.7 C 63 %
Sensor: Nr:Datum:Temp:Feuchte:
G-T/H 51 28-03-2020 08:20:18 9.7 C 63 %
52 28-03-2020 08:30:17 9.7 C 63 %
53 28-03-2020 08:40:17 9.6 C 63 %
54 28-03-2020 08:50:18 9.7 C 63 %
55 28-03-2020 09:00:18 9.6 C 63 %
56 28-03-2020 09:10:18 9.7 C 63 %
57 28-03-2020 09:20:17 9.6 C 63 %
58 28-03-2020 09:30:18 9.6 C 63 %
59 28-03-2020 09:40:18 9.6 C 63 %
60 28-03-2020 09:50:18 9.6 C 63 %
61 28-03-2020 10:00:18 9.6 C 63 %
62 28-03-2020 10:10:18 9.6 C 63 %
63 28-03-2020 10:20:17 9.6 C 64 %
64 28-03-2020 10:30:17 9.6 C 64 %
65 28-03-2020 10:40:17 9.6 C 64 %
66 28-03-2020 10:50:18 9.6 C 64 %
67 28-03-2020 11:00:18 9.6 C 64 %
68 28-03-2020 11:10:18 9.6 C 64 %
69 28-03-2020 11:20:17 9.6 C 64 %
70 28-03-2020 11:30:17 9.6 C 64 %
71 28-03-2020 11:40:17 9.6 C 64 %
72 28-03-2020 11:50:18 9.6 C 64 %
73 28-03-2020 12:00:17 9.7 C 64 %
74 28-03-2020 12:10:17 9.8 C 64 %
75 28-03-2020 12:20:17 9.8 C 64 %
Sensor: Nr:Datum:Temp:Feuchte:
G-T/H 76 28-03-2020 12:30:17 9.8 C 64 %
77 28-03-2020 12:40:17 9.8 C 64 %
78 28-03-2020 12:50:18 9.8 C 64 %
79 28-03-2020 13:00:18 9.8 C 64 %
80 28-03-2020 13:10:18 9.9 C 64 %
81 28-03-2020 13:20:18 10.6 C 62 %
82 28-03-2020 13:30:17 11 C 59 %
83 28-03-2020 13:40:17 11.2 C 57 %
84 28-03-2020 13:50:18 11.4 C 56 %
85 28-03-2020 14:00:17 11.5 C 56 %
86 28-03-2020 14:10:17 11.7 C 55 %
87 28-03-2020 14:20:17 11.9 C 54 %
88 28-03-2020 14:30:17 11.9 C 53 %
89 28-03-2020 14:40:17 12.1 C 52 %
90 28-03-2020 14:50:17 12.2 C 52 %
91 28-03-2020 15:00:18 12.3 C 51 %
92 28-03-2020 15:10:18 12.4 C 49 %
93 28-03-2020 15:20:18 12.4 C 49 %
94 28-03-2020 15:30:18 11.9 C 50 %
95 28-03-2020 15:40:18 11.9 C 51 %
96 28-03-2020 15:50:18 12.1 C 50 %
97 28-03-2020 16:00:18 11.8 C 51 %
98 28-03-2020 16:10:18 11.6 C 52 %
99 28-03-2020 16:20:18 11.5 C 53 %
100 28-03-2020 16:30:18 11.4 C 54 %
Sensor: Nr:Datum:Temp:Feuchte:
G-T/H 101 28-03-2020 16:40:18 11.4 C 55 %
102 28-03-2020 16:50:18 11.3 C 55 %
103 28-03-2020 17:00:18 11.3 C 56 %
104 28-03-2020 17:10:18 11.3 C 56 %
105 28-03-2020 17:20:18 11.2 C 56 %
106 28-03-2020 17:30:18 11.2 C 57 %
107 28-03-2020 17:40:18 11.2 C 57 %
108 28-03-2020 17:50:17 11.2 C 57 %
109 28-03-2020 18:00:18 11.2 C 57 %
110 28-03-2020 18:10:18 11.2 C 57 %
111 28-03-2020 18:20:17 11.2 C 58 %
112 28-03-2020 18:30:17 11.1 C 58 %
113 28-03-2020 18:40:17 11.1 C 58 %
114 28-03-2020 18:50:18 11.1 C 58 %
115 28-03-2020 19:00:18 11.1 C 58 %
116 28-03-2020 19:10:18 11.1 C 58 %
117 28-03-2020 19:20:18 11.1 C 58 %
118 28-03-2020 19:30:18 11.1 C 58 %
119 28-03-2020 19:40:18 11.1 C 58 %
120 28-03-2020 19:50:17 11.1 C 59 %
121 28-03-2020 20:00:18 11.1 C 59 %
122 28-03-2020 20:10:18 11.1 C 59 %
123 28-03-2020 20:20:17 11.1 C 59 %
124 28-03-2020 20:30:18 11.1 C 59 %
125 28-03-2020 20:40:18 11 C 59 %
Sensor: Nr:Datum:Temp:Feuchte:
G-T/H 126 28-03-2020 20:50:17 11 C 59 %
127 28-03-2020 21:00:17 11.1 C 60 %
128 28-03-2020 21:10:17 11 C 60 %
129 28-03-2020 21:20:17 11 C 60 %
130 28-03-2020 21:30:17 11 C 60 %
131 28-03-2020 21:40:17 11 C 60 %
132 28-03-2020 21:50:17 11 C 60 %
133 28-03-2020 22:00:17 11 C 60 %
134 28-03-2020 22:10:17 11 C 60 %
135 28-03-2020 22:20:17 11 C 61 %
136 28-03-2020 22:30:17 11 C 61 %
137 28-03-2020 22:40:17 11 C 61 %
138 28-03-2020 22:50:17 11 C 61 %
139 28-03-2020 23:00:17 11 C 61 %
140 28-03-2020 23:10:17 11 C 61 %
141 28-03-2020 23:20:18 11 C 61 %
142 28-03-2020 23:30:18 10.9 C 62 %
143 28-03-2020 23:40:18 10.9 C 62 %
144 28-03-2020 23:50:17 10.9 C 62 %

Legende:
   Min
   Max


Maximal/Minimal-Werte vom 28.03.2020 - 28.03.2020

Sensor Min Max Avg
Temp
(Aussen-T/F)
1 °C
28-03-2020  06:40:17
24.3 °C
28-03-2020  14:40:17
9.69 °C
Feuchte
(Aussen-T/F)
20 %
28-03-2020  11:20:17
47 %
28-03-2020  06:50:17
30.93 %
Temp
(G-T/H)
9.6 °C
28-03-2020  08:40:17
12.4 °C
28-03-2020  15:10:18
10.48 °C
Feuchte
(G-T/H)
49 %
28-03-2020  15:10:18
64 %
28-03-2020  10:20:17
59.69 %

Die Daten stammen von einer Davis Vantage Pro 2 Wetter-Station und werden unter Linux mit der Software wview2wettercgi und aufbereitet. Alle Angaben erfolgen ohne Gewähr für ihre Vollständigkeit oder Richtigkeit.
Kontakt: Rainer Krienke krienke@uni-koblenz.de . Meine Webseiten an der Uni Koblenz oder privat.
Version: $Revision: 0.78 $